Prague, Czech Republic

6:28 AM CEST on May 25, 2017 (GMT +0200)
Ruzyne

Weather History for LKPR - January, 2013

Change the Weather History Date:

Saturday, January 26, 2013

  Actual Average Record
Temperature  
Mean Temperature 7 °F -  
Max Temperature 16 °F 36 °F 50 °F (2016)
Min Temperature -2 °F 24 °F -2 °F (2013)
Degree Days  
Heating Degree Days 58    
Moisture  
Dew Point 5 °F    
Average Humidity 87    
Maximum Humidity 93    
Minimum Humidity 73    
Precipitation  
Precipitation 0.00 in 0.03 in - ()
Sea Level Pressure  
Sea Level Pressure 29.98 in    
Wind  
Wind Speed 3 mph ()    
Max Wind Speed 10 mph    
Max Gust Speed -    
Visibility 1.9 miles    
Events Fog , Snow    
Averages and records for this station are not official NWS values.
T = Trace of Precipitation, MM = Missing Value Source: Averaged Metar Reports

Daily Weather History Graph

Daily Weather History Graph

Search for Another Location

Airport or City:

Trip Planner

Search our weather history database for the weather conditions in past years. The results will help you decide how hot, cold, wet, or windy it might be!

Date:

Astronomy

Jan. 26, 2013 Rise Set
Actual Time 7:44 AM CET 4:46 PM CET
Civil Twilight 7:09 AM CET 5:22 PM CET
Nautical Twilight 6:29 AM CET 6:01 PM CET
Astronomical Twilight 5:51 AM CET 6:40 PM CET
Moon 4:28 PM CET (1/26) 6:49 AM CET (1/26)
Length of Visible Light 10h 13m
Length of Day
9h 02m
Waxing Gibbous, 99% of the Moon is Illuminated
Jan 26
Waxing Gibbous
Jan 27
Full
Feb 3
Last Quarter
Feb 10
New
Feb 17
First Quarter

Hourly Weather History & Observations

Time (CET) Temp. Windchill Dew Point Humidity Pressure Visibility Wind Dir Wind Speed Gust Speed Precip Events Conditions
12:00 AM 5.0 °F - 1.4 °F 85% 30.04 in 0.2 mi Calm Calm - N/A Fog Light Freezing Fog
12:30 AM 6.8 °F - 3.2 °F 85% 30.01 in 0.1 mi ESE 2.3 mph - N/A Fog Light Freezing Fog
1:00 AM 2 °F - -2 °F 75% 30.18 in 0 mi South 2.2 mph - - Fog Fog
1:00 AM 1.4 °F - -2.2 °F 85% 30.01 in 0.1 mi Calm Calm - N/A Fog Light Freezing Fog
1:30 AM 1.4 °F - -2.2 °F 85% 30.01 in 0.1 mi Variable 2.3 mph - N/A Fog Light Freezing Fog
2:00 AM 3.2 °F - -0.4 °F 85% 30.01 in 0.1 mi Variable 2.3 mph - N/A Fog Light Freezing Fog
2:30 AM 1.4 °F - -2.2 °F 85% 29.98 in 0.1 mi ESE 2.3 mph - N/A Fog Light Freezing Fog
3:00 AM 3.2 °F - -0.4 °F 85% 29.98 in 0.1 mi Calm Calm - N/A Fog Light Freezing Fog
3:08 AM -0.4 °F - -5.8 °F 78% 29.98 in 0.1 mi Calm Calm - N/A Fog Light Freezing Fog
3:13 AM -2.2 °F - -5.8 °F 85% 29.98 in 0.1 mi Calm Calm - N/A Fog Light Freezing Fog
3:18 AM 1.4 °F - -2.2 °F 85% 29.98 in 0.1 mi Variable 1.2 mph - N/A Fog Light Freezing Fog
3:26 AM 5.0 °F - 1.4 °F 85% 29.98 in 0.1 mi Variable 1.2 mph - N/A Fog Light Freezing Fog
3:30 AM 3.2 °F - -0.4 °F 85% 29.98 in 0.1 mi Variable 2.3 mph - N/A Fog Light Freezing Fog
4:00 AM 1.4 °F - -2.2 °F 85% 29.98 in 0.1 mi Variable 2.3 mph - N/A Fog Light Freezing Fog
4:23 AM 1.4 °F -8.3 °F -2.2 °F 85% 29.98 in 0.1 mi SW 4.6 mph - N/A Fog Light Freezing Fog
4:30 AM -0.4 °F -10.4 °F -4.0 °F 85% 29.98 in 0.2 mi SW 4.6 mph - N/A Fog Light Freezing Fog
4:38 AM 1.4 °F -6.2 °F -2.2 °F 85% 29.98 in 0.1 mi SSW 3.5 mph - N/A Fog Light Freezing Fog
4:45 AM 3.2 °F - -0.4 °F 85% 29.95 in 0.1 mi Variable 2.3 mph - N/A Fog Light Freezing Fog
5:00 AM 1.4 °F - -2.2 °F 85% 29.95 in 0.1 mi South 1.2 mph - N/A Fog Light Freezing Fog
5:06 AM 1.4 °F - -2.2 °F 85% 29.95 in 0.1 mi Variable 2.3 mph - N/A Fog Light Freezing Fog
5:30 AM -0.4 °F - -5.8 °F 78% 29.95 in 0.1 mi Variable 2.3 mph - N/A Fog Light Freezing Fog
5:44 AM -0.4 °F - -4.0 °F 85% 29.95 in 0.9 mi Variable 2.3 mph - N/A Fog Light Freezing Fog
5:51 AM -0.4 °F - -4.0 °F 85% 29.98 in 1.2 mi Variable 2.3 mph - N/A   Scattered Clouds
6:00 AM -2.2 °F - -5.8 °F 85% 29.95 in 1.2 mi Variable 2.3 mph - N/A   Scattered Clouds
6:30 AM -0.4 °F -12.0 °F -4.0 °F 85% 29.98 in 1.1 mi SW 5.8 mph - N/A Fog Patches of Fog
6:34 AM -0.4 °F -12.0 °F -4.0 °F 85% 29.98 in 1.1 mi SW 5.8 mph - N/A Fog Patches of Fog
6:39 AM -0.4 °F -12.0 °F -4.0 °F 85% 29.98 in 1.6 mi SSW 5.8 mph - N/A   Scattered Clouds
6:44 AM -0.4 °F -12.0 °F -4.0 °F 85% 29.98 in 1.9 mi SSW 5.8 mph - N/A   Scattered Clouds
7:00 AM -2 °F - -6 °F 73% 30.14 in 2 mi SSW 6.7 mph - -   Mist
7:00 AM -2.2 °F -14.2 °F -5.8 °F 85% 29.98 in 2.2 mi SSW 5.8 mph - N/A   Partly Cloudy
7:30 AM 5.0 °F -9.1 °F 3.2 °F 92% 29.98 in 2.2 mi South 9.2 mph - N/A   Scattered Clouds
8:00 AM 10.4 °F 0.8 °F 6.8 °F 85% 29.98 in - South 5.8 mph - N/A   Mostly Cloudy
8:30 AM 10.4 °F 2.2 °F 8.6 °F 92% 29.98 in - South 4.6 mph - N/A Snow Light Snow
8:49 AM 10.4 °F 2.2 °F 6.8 °F 85% 29.98 in 1.7 mi South 4.6 mph - N/A Snow Light Snow
9:00 AM 10.4 °F 0.8 °F 8.6 °F 92% 29.98 in 1.7 mi South 5.8 mph - N/A Snow Light Snow
9:30 AM 12.2 °F 4.3 °F 8.6 °F 85% 29.98 in 1.7 mi SSE 4.6 mph - N/A Snow Light Snow
10:00 AM 12.2 °F 2.9 °F 8.6 °F 85% 29.98 in 1.9 mi SE 5.8 mph - N/A   Overcast
10:30 AM 12.2 °F 4.3 °F 10.4 °F 92% 29.98 in - SSE 4.6 mph - N/A   Overcast
11:00 AM 12.2 °F 2.9 °F 10.4 °F 92% 29.98 in - SSE 5.8 mph - N/A Snow Light Snow
11:30 AM 14.0 °F 3.9 °F 12.2 °F 93% 29.98 in - SE 6.9 mph - N/A Snow Light Snow
12:00 PM 15.8 °F 7.2 °F 14.0 °F 93% 29.98 in - SSE 5.8 mph - N/A   Mostly Cloudy
12:30 PM 15.8 °F 6.1 °F 14.0 °F 93% 29.95 in - South 6.9 mph - N/A   Mostly Cloudy
1:00 PM 15 °F - 12 °F 82% 30.08 in 3 mi South 6.7 mph - - Snow Light Snow
1:00 PM 15.8 °F 6.1 °F 12.2 °F 86% 29.95 in 3.1 mi South 6.9 mph - N/A   Overcast
1:30 PM 14.0 °F 3.9 °F 12.2 °F 93% 29.95 in 3.1 mi South 6.9 mph - N/A Snow Light Snow
2:00 PM 15.8 °F 7.2 °F 12.2 °F 86% 29.95 in 3.7 mi South 5.8 mph - N/A Snow Light Snow
2:30 PM 14.0 °F 3.9 °F 12.2 °F 93% 29.95 in 3.7 mi South 6.9 mph - N/A   Overcast
3:00 PM 14.0 °F 3.9 °F 12.2 °F 93% 29.95 in 3.7 mi South 6.9 mph - N/A   Overcast
3:30 PM 14.0 °F 6.5 °F 12.2 °F 93% 29.98 in 3.7 mi South 4.6 mph - N/A   Overcast
4:00 PM 14.0 °F 5.1 °F 12.2 °F 93% 29.98 in 3.7 mi SSE 5.8 mph - N/A   Overcast
4:30 PM 14.0 °F 6.5 °F 10.4 °F 86% 29.98 in 3.7 mi South 4.6 mph - N/A   Overcast
4:36 PM 14.0 °F 8.2 °F 10.4 °F 86% 29.98 in 3.1 mi SSE 3.5 mph - N/A Snow Light Snow
5:00 PM 14.0 °F 5.1 °F 10.4 °F 86% 29.98 in 3.1 mi SE 5.8 mph - N/A Snow Light Snow
5:30 PM 14.0 °F 6.5 °F 10.4 °F 86% 29.95 in 3.7 mi South 4.6 mph - N/A   Overcast
6:00 PM 14.0 °F 5.1 °F 12.2 °F 93% 29.95 in 3.7 mi South 5.8 mph - N/A   Overcast
6:30 PM 14.0 °F 5.1 °F 12.2 °F 93% 29.95 in 3.7 mi South 5.8 mph - N/A   Overcast
7:00 PM 15 °F - 12 °F 80% 30.09 in 4 mi SSW 8.9 mph - -   Mist
7:00 PM 14.0 °F 5.1 °F 12.2 °F 93% 29.98 in 3.7 mi SSW 5.8 mph - N/A   Overcast
7:30 PM 14.0 °F 5.1 °F 12.2 °F 93% 29.95 in 3.7 mi South 5.8 mph - N/A   Overcast
8:00 PM 14.0 °F 5.1 °F 12.2 °F 93% 29.95 in 3.7 mi SSE 5.8 mph - N/A   Overcast
8:30 PM 14.0 °F 6.5 °F 12.2 °F 93% 29.95 in 3.7 mi South 4.6 mph - N/A   Overcast
9:00 PM 15.8 °F 8.6 °F 12.2 °F 86% 29.98 in 3.7 mi South 4.6 mph - N/A   Overcast
9:30 PM 15.8 °F 8.6 °F 12.2 °F 86% 29.98 in 3.7 mi South 4.6 mph - N/A   Overcast
10:00 PM 15.8 °F 6.1 °F 14.0 °F 93% 29.95 in 3.7 mi South 6.9 mph - N/A   Overcast
10:30 PM 15.8 °F 5.1 °F 12.2 °F 86% 29.95 in 3.7 mi SE 8.1 mph - N/A   Overcast
11:00 PM 15.8 °F 3.4 °F 12.2 °F 86% 29.95 in 3.7 mi SSE 10.4 mph - N/A   Overcast
11:30 PM 15.8 °F 5.1 °F 12.2 °F 86% 29.95 in 3.7 mi SSE 8.1 mph - N/A   Overcast